[keps] orb325.amsat
Ray Hoad
r.hoad at att.net
Thu Nov 20 16:20:31 PST 2008
SB KEPS @ AMSAT $ORB08325.O
Orbital Elements 08325.OSCAR
HR AMSAT ORBITAL ELEMENTS FOR OSCAR SATELLITES
FROM WA5QGD FORT WORTH,TX November 20, 2008
Send Subscribe/unsubscribe to KEPS at
http://www.amsat.org/mailman/listinfo/keps
BID: ORB08325.O
TO ALL RADIO AMATEURS BT
Satellite: AO-07
Catalog number: 07530
Epoch time: 08325.63441899
Element set: 332
Inclination: 101.4505 deg
RA of node: 351.8051 deg
Eccentricity: 0.0011762
Arg of perigee: 317.0379 deg
Mean anomaly: 042.9771 deg
Mean motion: 12.53574708 rev/day
Decay rate: -2.7e-07 rev/day^2
Epoch rev: 55658
Checksum: 300
Satellite: AO-10
Catalog number: 14129
Epoch time: 08324.53625017
Element set: 590
Inclination: 026.0377 deg
RA of node: 185.1553 deg
Eccentricity: 0.5958519
Arg of perigee: 174.7238 deg
Mean anomaly: 196.7054 deg
Mean motion: 02.05868745 rev/day
Decay rate: -7.2e-07 rev/day^2
Epoch rev: 19130
Checksum: 317
Satellite: UO-11
Catalog number: 14781
Epoch time: 08325.59969659
Element set: 818
Inclination: 098.1371 deg
RA of node: 001.8256 deg
Eccentricity: 0.0008121
Arg of perigee: 292.7418 deg
Mean anomaly: 067.2962 deg
Mean motion: 14.79676860 rev/day
Decay rate: -7.8e-07 rev/day^2
Epoch rev: 32698
Checksum: 353
Satellite: RS-15
Catalog number: 23439
Epoch time: 08325.19983016
Element set: 160
Inclination: 064.8173 deg
RA of node: 242.7643 deg
Eccentricity: 0.0145624
Arg of perigee: 092.4790 deg
Mean anomaly: 269.2817 deg
Mean motion: 11.27552685 rev/day
Decay rate: -3.9e-07 rev/day^2
Epoch rev: 57255
Checksum: 324
Satellite: FO-29
Catalog number: 24278
Epoch time: 08325.90125009
Element set: 908
Inclination: 098.5765 deg
RA of node: 221.6014 deg
Eccentricity: 0.0350700
Arg of perigee: 169.7324 deg
Mean anomaly: 191.1226 deg
Mean motion: 13.52939603 rev/day
Decay rate: -2.1e-07 rev/day^2
Epoch rev: 60558
Checksum: 300
Satellite: SO-33
Catalog number: 25509
Epoch time: 08324.57317785
Element set: 327
Inclination: 031.4328 deg
RA of node: 157.7555 deg
Eccentricity: 0.0355370
Arg of perigee: 305.7236 deg
Mean anomaly: 051.0817 deg
Mean motion: 14.28231614 rev/day
Decay rate: 3.5e-07 rev/day^2
Epoch rev: 52584
Checksum: 301
Satellite: AO-40
Catalog number: 26609
Epoch time: 08324.79327884
Element set: 155
Inclination: 008.1376 deg
RA of node: 048.1672 deg
Eccentricity: 0.7938590
Arg of perigee: 146.5041 deg
Mean anomaly: 308.2339 deg
Mean motion: 01.25586505 rev/day
Decay rate: -2.56e-06 rev/day^2
Epoch rev: 3699
Checksum: 334
Satellite: VO-52
Catalog number: 28650
Epoch time: 08325.35758949
Element set: 84
Inclination: 097.7719 deg
RA of node: 027.5274 deg
Eccentricity: 0.0027080
Arg of perigee: 353.8299 deg
Mean anomaly: 006.2567 deg
Mean motion: 14.81524912 rev/day
Decay rate: 4.47e-06 rev/day^2
Epoch rev: 19172
Checksum: 339
Satellite: PO-63
Catalog number: 29712
Epoch time: 08325.84635085
Element set: 986
Inclination: 097.8582 deg
RA of node: 020.9497 deg
Eccentricity: 0.0013243
Arg of perigee: 230.3585 deg
Mean anomaly: 129.6454 deg
Mean motion: 14.80342156 rev/day
Decay rate: 5.69e-06 rev/day^2
Epoch rev: 10064
Checksum: 325
/EX
SB KEPS @ AMSAT $ORB08325.D
Orbital Elements 08325.MICROS
HR AMSAT ORBITAL ELEMENTS FOR THE MICROSATS
FROM WA5QGD FORT WORTH,TX November 20, 2008
Send Subscribe/unsubscribe to KEPS at
http://www.amsat.org/mailman/listinfo/keps
BID: ORB08325.D
TO ALL RADIO AMATEURS BT
Satellite: AO-16
Catalog number: 20439
Epoch time: 08324.97850530
Element set: 467
Inclination: 098.2506 deg
RA of node: 297.2386 deg
Eccentricity: 0.0011932
Arg of perigee: 073.2258 deg
Mean anomaly: 287.0237 deg
Mean motion: 14.31808412 rev/day
Decay rate: -7.0e-08 rev/day^2
Epoch rev: 98321
Checksum: 310
Satellite: LO-19
Catalog number: 20442
Epoch time: 08325.48912018
Element set: 392
Inclination: 098.2186 deg
RA of node: 305.7600 deg
Eccentricity: 0.0012851
Arg of perigee: 070.4315 deg
Mean anomaly: 289.8268 deg
Mean motion: 14.32045636 rev/day
Decay rate: -7.1e-07 rev/day^2
Epoch rev: 98344
Checksum: 304
Satellite: AO-27
Catalog number: 22825
Epoch time: 08325.52658559
Element set: 111
Inclination: 098.4088 deg
RA of node: 279.8566 deg
Eccentricity: 0.0008803
Arg of perigee: 154.4038 deg
Mean anomaly: 205.7596 deg
Mean motion: 14.29252091 rev/day
Decay rate: 2.8e-07 rev/day^2
Epoch rev: 79010
Checksum: 325
Satellite: IO-26
Catalog number: 22826
Epoch time: 08324.92343278
Element set: 825
Inclination: 098.4003 deg
RA of node: 280.1148 deg
Eccentricity: 0.0009248
Arg of perigee: 152.3845 deg
Mean anomaly: 207.7836 deg
Mean motion: 14.29501850 rev/day
Decay rate: -1.2e-07 rev/day^2
Epoch rev: 79011
Checksum: 298
Satellite: GO-32
Catalog number: 25397
Epoch time: 08325.05127324
Element set: 751
Inclination: 098.3473 deg
RA of node: 352.3883 deg
Eccentricity: 0.0001920
Arg of perigee: 121.7363 deg
Mean anomaly: 238.4019 deg
Mean motion: 14.23151400 rev/day
Decay rate: 3.1e-07 rev/day^2
Epoch rev: 53838
Checksum: 277
Satellite: NO-44
Catalog number: 26931
Epoch time: 08323.27606400
Element set: 29
Inclination: 067.0530 deg
RA of node: 247.6974 deg
Eccentricity: 0.0006686
Arg of perigee: 256.0498 deg
Mean anomaly: 103.9861 deg
Mean motion: 14.29538907 rev/day
Decay rate: -8.4e-07 rev/day^2
Epoch rev: 37243
Checksum: 320
Satellite: SO-50
Catalog number: 27607
Epoch time: 08325.26280066
Element set: 749
Inclination: 064.5602 deg
RA of node: 299.6252 deg
Eccentricity: 0.0084511
Arg of perigee: 249.0584 deg
Mean anomaly: 110.1406 deg
Mean motion: 14.71395958 rev/day
Decay rate: -6.4e-07 rev/day^2
Epoch rev: 31793
Checksum: 314
Satellite: CO-55
Catalog number: 27844
Epoch time: 08325.44527209
Element set: 445
Inclination: 098.7169 deg
RA of node: 331.5528 deg
Eccentricity: 0.0010510
Arg of perigee: 030.1018 deg
Mean anomaly: 330.0756 deg
Mean motion: 14.20607544 rev/day
Decay rate: 4.1e-07 rev/day^2
Epoch rev: 27962
Checksum: 285
Satellite: CO-57
Catalog number: 27848
Epoch time: 08323.06944597
Element set: 394
Inclination: 098.7168 deg
RA of node: 328.2821 deg
Eccentricity: 0.0010463
Arg of perigee: 038.2739 deg
Mean anomaly: 321.9184 deg
Mean motion: 14.20413952 rev/day
Decay rate: 4.0e-07 rev/day^2
Epoch rev: 27925
Checksum: 327
Satellite: AO-51
Catalog number: 28375
Epoch time: 08325.53165566
Element set: 248
Inclination: 098.0610 deg
RA of node: 341.2378 deg
Eccentricity: 0.0085170
Arg of perigee: 038.6818 deg
Mean anomaly: 322.0432 deg
Mean motion: 14.40625050 rev/day
Decay rate: 1.8e-07 rev/day^2
Epoch rev: 23091
Checksum: 285
Satellite: CO-56
Catalog number: 28941
Epoch time: 08325.83785922
Element set: 569
Inclination: 098.1228 deg
RA of node: 099.0662 deg
Eccentricity: 0.0139107
Arg of perigee: 188.6198 deg
Mean anomaly: 171.2582 deg
Mean motion: 15.65414474 rev/day
Decay rate: 4.4453e-04 rev/day^2
Epoch rev: 15447
Checksum: 357
Satellite: CP3
Catalog number: 31128
Epoch time: 08325.14642880
Element set: 486
Inclination: 098.0196 deg
RA of node: 021.8347 deg
Eccentricity: 0.0102259
Arg of perigee: 211.9701 deg
Mean anomaly: 147.5286 deg
Mean motion: 14.51993083 rev/day
Decay rate: -4.7e-07 rev/day^2
Epoch rev: 8456
Checksum: 306
Satellite: CP4
Catalog number: 31132
Epoch time: 08322.63879946
Element set: 461
Inclination: 098.0225 deg
RA of node: 022.3611 deg
Eccentricity: 0.0085009
Arg of perigee: 211.2956 deg
Mean anomaly: 148.3156 deg
Mean motion: 14.55158745 rev/day
Decay rate: 7.1e-07 rev/day^2
Epoch rev: 8426
Checksum: 292
Satellite: CO-65
Catalog number: 32785
Epoch time: 08325.14900223
Element set: 214
Inclination: 097.9760 deg
RA of node: 024.5270 deg
Eccentricity: 0.0014905
Arg of perigee: 355.0303 deg
Mean anomaly: 005.0760 deg
Mean motion: 14.81418151 rev/day
Decay rate: 4.03e-06 rev/day^2
Epoch rev: 3049
Checksum: 263
/EX
SB KEPS @ AMSAT $ORB08325.W
Orbital Elements 08325.WEATHER
HR AMSAT ORBITAL ELEMENTS FOR WEATHER SATELLITES
FROM WA5QGD FORT WORTH,TX November 20, 2008
Send Subscribe/unsubscribe to KEPS at
http://www.amsat.org/mailman/listinfo/keps
BID: ORB08325.W
TO ALL RADIO AMATEURS BT
Satellite: NOAA-10
Catalog number: 16969
Epoch time: 08325.19460648
Element set: 377
Inclination: 098.7116 deg
RA of node: 346.7752 deg
Eccentricity: 0.0013130
Arg of perigee: 086.7131 deg
Mean anomaly: 273.5568 deg
Mean motion: 14.27372659 rev/day
Decay rate: -1.34e-06 rev/day^2
Epoch rev: 15369
Checksum: 330
Satellite: NOAA-11
Catalog number: 19531
Epoch time: 08324.88668687
Element set: 403
Inclination: 098.7937 deg
RA of node: 052.0090 deg
Eccentricity: 0.0011568
Arg of perigee: 348.9924 deg
Mean anomaly: 011.1007 deg
Mean motion: 14.14881219 rev/day
Decay rate: -8.3e-07 rev/day^2
Epoch rev: 3992
Checksum: 316
Satellite: NOAA-12
Catalog number: 21263
Epoch time: 08325.51127258
Element set: 913
Inclination: 098.7713 deg
RA of node: 327.4936 deg
Eccentricity: 0.0013167
Arg of perigee: 034.6772 deg
Mean anomaly: 325.5264 deg
Mean motion: 14.25554919 rev/day
Decay rate: 9.0e-08 rev/day^2
Epoch rev: 91066
Checksum: 310
Satellite: MET-3/5
Catalog number: 21655
Epoch time: 08325.23405560
Element set: 517
Inclination: 082.5546 deg
RA of node: 354.1338 deg
Eccentricity: 0.0013493
Arg of perigee: 349.7452 deg
Mean anomaly: 010.3391 deg
Mean motion: 13.17017037 rev/day
Decay rate: 5.1e-07 rev/day^2
Epoch rev: 83012
Checksum: 272
Satellite: MET-2/21
Catalog number: 22782
Epoch time: 08325.62518217
Element set: 306
Inclination: 082.5488 deg
RA of node: 347.4693 deg
Eccentricity: 0.0021613
Arg of perigee: 208.0426 deg
Mean anomaly: 151.9576 deg
Mean motion: 13.83630972 rev/day
Decay rate: -2.7e-07 rev/day^2
Epoch rev: 76876
Checksum: 322
Satellite: OKEAN-4
Catalog number: 23317
Epoch time: 08325.56433185
Element set: 752
Inclination: 082.5382 deg
RA of node: 169.1633 deg
Eccentricity: 0.0021717
Arg of perigee: 336.1349 deg
Mean anomaly: 023.8854 deg
Mean motion: 14.82652836 rev/day
Decay rate: 2.14e-06 rev/day^2
Epoch rev: 76145
Checksum: 306
